W5WDV Weather Reports


Display with metric or nautical units.
time (UTC)temp
F
wind
direction
speed
MPH
gust
MPH
rain 1hr
in
rain 24hr
in
rain mn
in
humidity
%
barometer
mb
20260506134959 75 182 0.0 3.0 0.00 0.00 0.00 17 1007.9
20260506134459 75 168 1.0 9.0 0.00 0.00 0.00 17 1007.9
20260506133959 75 200 2.0 9.0 0.00 0.00 0.00 17 1007.8
20260506133459 75 164 3.0 9.0 0.00 0.00 0.00 17 1007.7
20260506132959 75 155 1.0 6.0 0.00 0.00 0.00 17 1007.7
20260506132459 75 175 0.0 6.0 0.00 0.00 0.00 17 1007.7
20260506131959 75 169 1.0 7.0 0.00 0.00 0.00 17 1007.7
20260506131459 75 165 2.0 7.0 0.00 0.00 0.00 17 1007.7
20260506130959 75 163 2.0 5.0 0.00 0.00 0.00 17 1007.6
20260506130459 75 150 2.0 6.0 0.00 0.00 0.00 17 1007.5
20260506125959 75 205 1.0 6.0 0.00 0.00 0.00 17 1007.5
20260506125459 75 153 0.0 3.0 0.00 0.00 0.00 17 1007.6
20260506124959 75 150 1.0 5.0 0.00 0.00 0.00 17 1007.6
20260506124501 75 161 2.0 5.0 0.00 0.00 0.00 17 1007.6
20260506123959 75 150 2.0 5.0 0.00 0.00 0.00 17 1007.7
20260506123501 75 190 0.0 3.0 0.00 0.00 0.00 17 1007.7
20260506123000 75 191 0.0 3.0 0.00 0.00 0.00 17 1007.6
20260506122459 75 181 1.0 3.0 0.00 0.00 0.00 17 1007.6
20260506122000 75 182 0.0 3.0 0.00 0.00 0.00 17 1007.5
20260506121459 75 182 1.0 3.0 0.00 0.00 0.00 17 1007.4
20260506120959 75 178 0.0 3.0 0.00 0.00 0.00 17 1007.4
20260506120500 75 191 0.0 5.0 0.00 0.00 0.00 17 1007.5
20260506115958 75 174 0.0 5.0 0.00 0.00 0.00 17 1007.5
20260506115501 75 168 1.0 5.0 0.00 0.00 0.00 17 1007.3
20260506114500 75 173 1.0 3.0 0.00 0.00 0.00 17 1007.3
20260506113959 75 159 0.0 0.0 0.00 0.00 0.00 17 1007.4
20260506113000 76 181 0.0 0.0 0.00 0.00 0.00 17 1007.3
20260506112459 76 184 0.0 0.0 0.00 0.00 0.00 17 1007.3
20260506112000 76 184 0.0 0.0 0.00 0.00 0.00 17 1007.4
20260506111459 76 184 0.0 0.0 0.00 0.00 0.00 17 1007.4
20260506110459 76 184 0.0 0.0 0.00 0.00 0.00 17 1007.2
20260506105958 76 184 0.0 0.0 0.00 0.00 0.00 17 1007.2
20260506105459 76 184 0.0 0.0 0.00 0.00 0.00 17 1007.2
20260506105002 76 184 0.0 0.0 0.00 0.00 0.00 17 1007.1
20260506104459 76 184 0.0 0.0 0.00 0.00 0.00 17 1007.2
20260506103959 76 184 0.0 0.0 0.00 0.00 0.00 17 1007.2
20260506102959 76 184 0.0 0.0 0.00 0.00 0.00 17 1007.1
20260506102459 76 184 0.0 0.0 0.00 0.00 0.00 17 1007.1
20260506102001 76 184 0.0 0.0 0.00 0.00 0.00 17 1007.0
20260506101459 76 182 0.0 0.0 0.00 0.00 0.00 17 1007.1
20260506101000 76 182 0.0 0.0 0.00 0.00 0.00 17 1007.1
20260506100459 76 192 0.0 0.0 0.00 0.00 0.00 17 1007.0
20260506095959 76 205 0.0 0.0 0.00 0.00 0.00 17 1006.9
20260506095459 76 204 0.0 3.0 0.00 0.00 0.00 17 1006.9
20260506094959 76 219 1.0 3.0 0.00 0.00 0.00 17 1006.9
20260506094501 76 204 1.0 3.0 0.00 0.00 0.00 17 1006.9
20260506093959 76 176 0.0 6.0 0.00 0.00 0.00 17 1006.8
20260506093500 76 188 1.0 6.0 0.00 0.00 0.00 17 1006.8
20260506093000 76 196 1.0 6.0 0.00 0.00 0.00 17 1006.9
20260506092459 76 189 1.0 5.0 0.00 0.00 0.00 17 1006.9
20260506091959 76 189 2.0 5.0 0.00 0.00 0.00 17 1006.9
20260506091503 76 189 2.0 5.0 0.00 0.00 0.00 17 1006.9
20260506091001 76 187 2.0 5.0 0.00 0.00 0.00 17 1006.9
20260506090459 76 201 2.0 5.0 0.00 0.00 0.00 17 1007.0
20260506085459 76 178 1.0 5.0 0.00 0.00 0.00 17 1007.0
20260506084959 76 213 2.0 5.0 0.00 0.00 0.00 17 1007.1
20260506084000 76 212 2.0 6.0 0.00 0.00 0.00 17 1007.0
20260506083459 76 192 1.0 6.0 0.00 0.00 0.00 17 1007.0
20260506083000 76 221 2.0 6.0 0.00 0.00 0.00 17 1007.0
20260506082501 76 165 2.0 9.0 0.00 0.00 0.00 17 1006.9
20260506082000 77 215 3.0 10.0 0.00 0.00 0.00 17 1006.9
20260506081502 76 209 2.0 10.0 0.00 0.00 0.00 17 1007.0
20260506080459 77 207 2.0 7.0 0.00 0.00 0.00 17 1007.1
20260506072959 77 174 1.0 7.0 0.00 0.00 0.00 17 1007.5
20260506072459 77 172 3.0 7.0 0.00 0.00 0.00 17 1007.4
20260506072000 77 215 2.0 7.0 0.00 0.00 0.00 17 1007.4
20260506071459 77 179 2.0 6.0 0.00 0.00 0.00 17 1007.4
20260506071000 77 196 3.0 7.0 0.00 0.00 0.00 17 1007.5
20260506062501 77 194 6.0 12.0 0.00 0.00 0.00 17 1007.5
20260506062000 77 180 6.0 12.0 0.00 0.00 0.00 17 1007.5
20260506061459 77 169 5.0 10.0 0.00 0.00 0.00 17 1007.6
20260506061000 77 173 4.0 10.0 0.00 0.00 0.00 17 1007.6
20260506051000 77 173 4.0 12.0 0.00 0.00 0.00 17 1007.4
20260506044959 77 177 3.0 10.0 0.00 0.00 0.00 17 1007.5
20260506044500 77 158 3.0 7.0 0.00 0.00 0.00 17 1007.6
20260506044000 77 147 2.0 8.0 0.00 0.00 0.00 17 1007.5
20260506043459 77 204 2.0 8.0 0.00 0.00 0.00 17 1007.5
20260506042501 77 177 5.0 10.0 0.00 0.00 0.00 17 1007.5
20260506041959 77 169 5.0 10.0 0.00 0.00 0.00 17 1007.5
20260506041000 77 172 4.0 9.0 0.00 0.00 0.00 17 1007.3
20260506040502 77 169 3.0 9.0 0.00 0.00 0.00 17 1007.2
20260506035500 78 174 3.0 8.0 0.00 0.00 0.00 17 1007.2
20260506035001 78 171 1.0 7.0 0.00 0.00 0.00 17 1007.1
20260506034500 78 175 2.0 7.0 0.00 0.00 0.00 17 1006.9
20260506033959 78 164 3.0 9.0 0.00 0.00 0.00 17 1006.7
20260506033500 78 176 4.0 9.0 0.00 0.01 0.00 17 1006.7
20260506033000 78 164 3.0 9.0 0.00 0.01 0.00 17 1006.6
20260506032459 78 170 5.0 12.0 0.00 0.01 0.00 17 1006.7
20260506032000 79 159 3.0 12.0 0.00 0.01 0.00 17 1006.7
20260506031500 79 188 3.0 12.0 0.00 0.01 0.00 17 1006.6
20260506030959 79 182 3.0 12.0 0.00 0.01 0.00 17 1006.5
20260506030500 79 167 6.0 12.0 0.00 0.01 0.00 17 1006.4
20260506025959 79 185 5.0 12.0 0.00 0.01 0.00 17 1006.2
20260506025500 80 165 3.0 12.0 0.00 0.01 0.00 17 1006.2
20260506025000 80 191 5.0 12.0 0.00 0.01 0.00 17 1006.1
20260506024459 80 169 5.0 12.0 0.00 0.01 0.00 17 1006.1
20260506024002 80 173 5.0 12.0 0.00 0.01 0.00 17 1006.1
20260506023500 80 166 5.0 12.0 0.00 0.01 0.00 17 1006.1
20260506022959 80 176 4.0 9.0 0.00 0.01 0.00 17 1006.0
20260506022500 81 165 4.0 14.0 0.00 0.01 0.00 17 1006.0
20260506022003 81 169 5.0 14.0 0.00 0.01 0.00 17 1005.9
20260506021459 81 160 4.0 10.0 0.00 0.01 0.00 17 1005.9
20260506021000 81 165 5.0 10.0 0.00 0.01 0.00 17 1005.7
20260506015959 82 184 5.0 13.0 0.00 0.01 0.00 17 1005.5
20260506015000 82 161 5.0 17.0 0.00 0.01 0.00 17 1005.4
20260506014459 82 150 5.0 12.0 0.00 0.01 0.00 17 1005.4
20260506014000 83 161 5.0 12.0 0.00 0.01 0.00 18 1005.4
20260506013500 83 170 3.0 8.0 0.00 0.01 0.00 24 1005.2
20260506013002 83 165 3.0 10.0 0.00 0.01 0.00 29 1005.1
20260506012459 83 160 3.0 10.0 0.00 0.01 0.00 35 1005.1
20260506012000 83 138 3.0 9.0 0.00 0.01 0.00 41 1005.1
20260506011500 84 167 2.0 6.0 0.00 0.01 0.00 44 1005.0
20260506011000 84 166 1.0 7.0 0.00 0.01 0.00 45 1004.9
20260506010501 84 179 1.0 7.0 0.00 0.01 0.00 45 1004.8
20260506010000 84 165 1.0 7.0 0.00 0.01 0.00 45 1004.7
20260506005459 84 163 0.0 7.0 0.00 0.01 0.00 46 1004.7
20260506005000 84 163 0.0 7.0 0.00 0.01 0.00 47 1004.8
20260506004459 84 164 4.0 7.0 0.00 0.01 0.00 49 1004.8
20260506003500 84 166 3.0 6.0 0.00 0.01 0.00 51 1004.7
20260506002501 84 176 2.0 9.0 0.00 0.01 0.00 53 1004.8
20260506001959 85 152 4.0 9.0 0.00 0.01 0.00 54 1004.6
20260506001500 85 156 4.0 8.0 0.00 0.01 0.00 54 1004.6
20260506001003 85 177 1.0 7.0 0.00 0.01 0.00 53 1004.5
20260506000459 85 161 4.0 9.0 0.00 0.01 0.00 56 1004.5
20260505235500 85 134 2.0 9.0 0.00 0.01 0.00 53 1004.4
20260505235000 85 170 1.0 9.0 0.00 0.01 0.00 55 1004.4
20260505234000 85 160 6.0 12.0 0.00 0.01 0.00 57 1004.3
20260505233500 85 173 3.0 8.0 0.00 0.01 0.00 58 1004.3
20260505233000 85 164 2.0 9.0 0.00 0.01 0.00 58 1004.3
20260505232459 85 196 3.0 9.0 0.00 0.01 0.00 59 1004.2
20260505232000 86 148 5.0 12.0 0.00 0.01 0.00 60 1004.2
20260505231459 86 166 6.0 12.0 0.00 0.01 0.00 62 1004.3
20260505231003 86 149 5.0 8.0 0.00 0.01 0.00 61 1004.3
20260505230500 86 150 2.0 9.0 0.00 0.01 0.00 59 1004.3
20260505225959 86 156 5.0 12.0 0.00 0.01 0.00 60 1004.3
20260505225500 86 166 5.0 14.0 0.00 0.01 0.00 61 1004.3
20260505225001 86 167 7.0 14.0 0.00 0.01 0.00 61 1004.2
20260505224502 85 177 2.0 8.0 0.00 0.01 0.00 60 1004.3
20260505224000 85 164 2.0 9.0 0.00 0.01 0.00 59 1004.4
20260505223459 85 169 5.0 12.0 0.00 0.01 0.00 61 1004.4
20260505223000 86 164 5.0 12.0 0.00 0.01 0.00 62 1004.5
20260505222500 87 159 2.0 9.0 0.00 0.01 0.00 62 1004.5
20260505222000 87 189 5.0 8.0 0.00 0.01 0.00 65 1004.5
20260505220500 85 181 2.0 10.0 0.00 0.01 0.00 63 1004.7
20260505220003 85 196 3.0 5.0 0.00 0.01 0.00 64 1004.8
20260505214500 86 226 2.0 9.0 0.00 0.01 0.00 64 1004.8
20260505214000 86 200 3.0 9.0 0.00 0.01 0.00 64 1004.9
20260505213500 86 184 2.0 9.0 0.00 0.01 0.00 64 1005.0
20260505213000 86 227 5.0 9.0 0.00 0.01 0.00 66 1005.1
20260505212503 86 179 2.0 8.0 0.00 0.01 0.00 63 1005.2
20260505212000 86 210 2.0 8.0 0.00 0.01 0.00 64 1005.3
20260505211500 86 200 2.0 7.0 0.00 0.01 0.00 64 1005.4
20260505211000 86 189 3.0 6.0 0.00 0.01 0.00 64 1005.4
20260505210500 85 195 1.0 6.0 0.00 0.01 0.00 61 1005.4
20260505205959 85 177 1.0 7.0 0.00 0.01 0.00 61 1005.5
20260505205501 85 184 3.0 7.0 0.00 0.01 0.00 63 1005.7
20260505205000 85 182 2.0 7.0 0.00 0.01 0.00 62 1005.7
20260505204459 84 205 4.0 7.0 0.00 0.01 0.00 63 1005.8
20260505204001 84 171 2.0 8.0 0.00 0.01 0.00 60 1005.9
20260505203500 84 172 3.0 10.0 0.00 0.01 0.00 61 1006.0
20260505202503 84 164 3.0 10.0 0.00 0.01 0.00 60 1006.1
20260505202001 84 162 3.0 9.0 0.00 0.01 0.00 61 1006.2
20260505201500 84 207 1.0 9.0 0.00 0.01 0.00 60 1006.2
20260505201001 84 196 5.0 9.0 0.00 0.01 0.00 62 1006.3
20260505200500 85 216 3.0 8.0 0.00 0.01 0.00 63 1006.3
20260505200000 85 205 2.0 8.0 0.00 0.01 0.00 56 1006.3
20260505195500 84 161 3.0 10.0 0.00 0.01 0.00 61 1006.4
20260505195000 85 162 0.0 10.0 0.00 0.01 0.00 61 1006.5
20260505194459 85 161 4.0 9.0 0.00 0.01 0.00 60 1006.5
20260505193500 84 191 2.0 8.0 0.00 0.01 0.00 59 1006.6
20260505193000 84 280 2.0 8.0 0.00 0.01 0.00 52 1006.8
20260505192002 83 204 1.0 6.0 0.00 0.01 0.00 50 1006.9
20260505191500 83 197 1.0 7.0 0.00 0.01 0.00 38 1007.1
20260505191002 82 178 1.0 8.0 0.00 0.01 0.00 41 1007.2
20260505190500 82 148 5.0 8.0 0.00 0.01 0.00 41 1007.2
20260505190000 81 175 3.0 7.0 0.00 0.01 0.00 36 1007.3
20260505185000 81 239 0.0 7.0 0.00 0.01 0.00 32 1007.4
20260505184501 81 204 1.0 7.0 0.00 0.01 0.00 30 1007.4
20260505183500 81 202 2.0 6.0 0.00 0.01 0.00 38 1007.6
20260505182500 81 164 0.0 5.0 0.00 0.01 0.00 23 1007.6
20260505182001 81 224 1.0 3.0 0.00 0.01 0.00 21 1007.6
20260505181500 80 227 1.0 5.0 0.00 0.01 0.00 18 1007.6
20260505180859 80 183 1.0 5.0 0.00 0.01 0.00 17 1007.6
20260505180501 80 238 1.0 6.0 0.00 0.01 0.00 17 1007.7
20260505180000 80 216 1.0 6.0 0.00 0.01 0.00 17 1007.7
20260505175500 80 201 1.0 6.0 0.00 0.01 0.00 17 1007.7
20260505175003 80 206 1.0 8.0 0.00 0.01 0.00 17 1007.7
20260505174500 79 221 2.0 8.0 0.00 0.01 0.00 17 1007.8
20260505174004 79 219 2.0 8.0 0.00 0.01 0.00 17 1007.9
20260505173500 79 203 2.0 8.0 0.00 0.01 0.00 17 1007.9
20260505173002 79 188 0.0 6.0 0.00 0.01 0.00 17 1008.0
20260505172500 79 236 2.0 6.0 0.00 0.01 0.00 17 1007.9
20260505172000 78 210 3.0 6.0 0.00 0.01 0.00 17 1007.9
20260505171500 78 214 1.0 6.0 0.00 0.01 0.00 17 1007.9
20260505171002 78 210 1.0 9.0 0.00 0.01 0.00 17 1007.9
20260505170500 78 201 3.0 9.0 0.00 0.01 0.00 17 1007.9
20260505170002 77 207 1.0 10.0 0.00 0.01 0.00 17 1007.9
20260505165500 77 196 3.0 10.0 0.00 0.01 0.00 17 1007.9
20260505165000 77 199 1.0 7.0 0.00 0.01 0.00 17 1007.9
20260505164500 77 199 1.0 7.0 0.00 0.01 0.00 17 1008.0
20260505163500 76 240 0.0 7.0 0.00 0.01 0.00 17 1008.0
20260505163001 76 191 1.0 7.0 0.00 0.01 0.00 17 1008.0
20260505162500 75 223 1.0 7.0 0.00 0.01 0.00 17 1008.0
20260505162000 75 236 0.0 7.0 0.00 0.01 0.00 17 1007.9
20260505161500 75 236 1.0 7.0 0.00 0.01 0.00 17 1008.0
20260505161000 75 201 0.0 7.0 0.00 0.01 0.00 17 1008.1
20260505160504 74 217 2.0 7.0 0.00 0.01 0.00 17 1008.0
20260505152500 73 215 3.0 6.0 0.00 0.01 0.00 17 1008.0
20260505152001 73 194 1.0 6.0 0.00 0.01 0.00 17 1008.0
20260505151500 73 214 1.0 6.0 0.00 0.01 0.00 17 1008.0
20260505150500 73 195 0.0 7.0 0.00 0.01 0.00 17 1007.9
20260505140500 71 228 1.0 3.0 0.00 0.01 0.00 17 1007.9